This is the latest recevied weather packets stored in our database for station/object N0QWM. If no packets are shown the sender has not sent any weather packets the latest 10 day(s).
| Time | Temp. | Humidity | Pressure | Rain* | Wind** | Luminosity | Snow |
|---|---|---|---|---|---|---|---|
| 1788285493 | 35.56° C | 50% | 1023.7 hPa | 0 mm | - | 677 W/m² | - |
| 1788285188 | 36.11° C | 50% | 1023.9 hPa | 0 mm | - | 676 W/m² | - |
| 1788284883 | 35.56° C | 48% | 1023.9 hPa | 0 mm | - | 658 W/m² | - |
| 1788284579 | 35.56° C | 49% | 1023.9 hPa | 0 mm | - | 661 W/m² | - |
| 1788284274 | 35.56° C | 47% | 1024.1 hPa | 0 mm | - | 677 W/m² | - |
| 1788283969 | 35.56° C | 48% | 1024.2 hPa | 0 mm | - | 647 W/m² | - |
| 1788283666 | 35.56° C | 50% | 1024.1 hPa | 0 mm | - | 686 W/m² | - |
| 1788283364 | 35° C | 50% | 1024.2 hPa | 0 mm | - | 722 W/m² | - |
| 1788283063 | 34.44° C | 53% | 1024.2 hPa | 0 mm | - | 706 W/m² | - |
| 1788282762 | 35° C | 50% | 1024.6 hPa | 0 mm | - | 681 W/m² | - |
| 1788282461 | 35° C | 53% | 1024.5 hPa | 0 mm | - | 687 W/m² | - |
| 1788282156 | 34.44° C | 55% | 1024.6 hPa | 0 mm | - | 631 W/m² | - |
| 1788281855 | 33.89° C | 59% | 1024.6 hPa | 0 mm | - | 557 W/m² | - |
| 1788281555 | 34.44° C | 56% | 1024.7 hPa | 0 mm | - | 203 W/m² | - |
| 1788281251 | 35° C | 54% | 1024.8 hPa | 0 mm | - | 555 W/m² | - |
| 1788280947 | 34.44° C | 52% | 1024.6 hPa | 0 mm | - | 605 W/m² | - |
| 1788280642 | 34.44° C | 53% | 1024.9 hPa | 0 mm | - | 304 W/m² | - |
| 1788280341 | 34.44° C | 54% | 1024.8 hPa | 0 mm | - | 742 W/m² | - |
| 1788280036 | 33.89° C | 57% | 1024.7 hPa | 0 mm | - | 709 W/m² | - |
| 1788279751 | 33.89° C | 59% | 1024.7 hPa | 0 mm | - | 723 W/m² | - |
| 1788279434 | 32.78° C | 62% | 1024.9 hPa | 0 mm | - | 186 W/m² | - |
| 1788279129 | 32.22° C | 62% | 1024.9 hPa | 0 mm | - | 110 W/m² | - |
| 1788278827 | 32.78° C | 61% | 1025.1 hPa | 0 mm | - | 139 W/m² | - |
| 1788278521 | 33.89° C | 58% | 1025 hPa | 0 mm | - | 121 W/m² | - |
| 1788278219 | 33.89° C | 60% | 1025.1 hPa | 0 mm | - | 707 W/m² | - |
* Rain latest hour (hover to see other rain measurements)
** Current wind speed in m/s (hover to see current wind gust speed)